www.pogodaiklimat.ru
ПОГОДА в Оле
Время
(UTC), дата
21 13.11
00 14.11
03 14.11
06 14.11
09 14.11
12 14.11
15 14.11
18 14.11
21 14.11
00 15.11
03 15.11
06 15.11
09 15.11
12 15.11
15 15.11
18 15.11
21 15.11
00 16.11
03 16.11
06 16.11
09 16.11
12 16.11
15 16.11
18 16.11
21 16.11
00 17.11
03 17.11
06 17.11
09 17.11
12 17.11
15 17.11
18 17.11
21 17.11
00 18.11
03 18.11
06 18.11
09 18.11
12 18.11
15 18.11
18 18.11
21 18.11
00 19.11
03 19.11
06 19.11
09 19.11
12 19.11
15 19.11
18 19.11
21 19.11
00 20.11
03 20.11
06 20.11
09 20.11
12 20.11
15 20.11
18 20.11
Ветер
(напр.,м/с)
Видим. Явления Облачность Т
(С)
Тd
(С)
f
(%)
Тe
(С)
Тes
(С)
Комфортность P
(гПа)
Po
(гПа)
Тmin
(С)
Tmax
(С)
R
(мм)
R24
(мм)
S
(см)
СВ 3 50 км 10/8 1000 м
[Sc Ac und]
-2.6 -8.1 66 -7 -7 холодно 1009.9 1009.3 -5.1
СВ 2 20 км 10/10 800 м
[Cb cap Ci fib]
-1.9 -7.6 65 -5 -5 холодно 1011.3 1010.7
В 5 20 км {ливн. осадки} 10/8 600 м
[Cb cap Ci fib]
+0.5 -4.9 67 -5 -5 холодно 1011.3 1010.7
В 7 20 км 10/9 800 м
[Cb cap Ci fib]
-0.5 -4.9 72 -7 -7 холодно 1011.3 1010.7
В 5-10
{13}
50 км 3/3 600 м
[Cb cap]
-0.1 -4.0 75 -6 -6 холодно 1011.3 1010.7 +0.6 0.0
В 6-11
{12}
50 км 4/3 1000 м
[Sc Ac trans]
-0.1 -3.1 80 -7 -7 холодно 1011.3 1010.7
В 6-11
{15}
50 км 4/3 1000 м
[Sc Ac trans]
+0.2 -4.2 72 -6 -6 холодно 1008.3 1007.6
В 3
{17}
50 км 4/4 1000 м
[Sc]
+0.5 -4.0 72 -4 -4 прохладно 1007.3 1006.7
СВ 8-14
{15}
10 км слаб. ливневой снег 8/0 600 м
[Ci fib]
+1.1 -2.0 80 -6 -6 холодно 1002.8 1002.2 -0.4 0.0
В 11-18
{20}
50 км осадки на расстоянии {ливн. осадки} 9/8 600 м
[Cb cap Ci]
+1.4 -4.5 65 -6 -6 холодно 1003.3 1002.7
СВ 11-19
{23}
20 км осадки на расстоянии 10/10 600 м
[Cb cap]
+1.6 -4.5 64 -6 -6 холодно 998.6 997.9
СВ 9-20
{20}
50 км пыльный позёмок 10/9 600 м
[Cb cap Ac und]
+1.3 -3.9 68 -6 -6 холодно 999.3 998.7
СВ 7-15
{20}
50 км 10/10 600 м
[Cb cap]
+0.8 -3.3 74 -6 -6 холодно 999.3 998.7 +1.8 0.0
СВ 10-19
{19}
50 км 10/8 600 м
[Cb cap Ac und]
+1.1 -3.6 71 -6 -6 холодно 999.3 998.7
СВ 8-15
{19}
50 км 10/6 600 м
[Cb cap Ac und]
+0.7 -4.5 68 -6 -6 холодно 999.5 998.8
СВ 7-15
{17}
50 км 10/6 600 м
[Cb cap Ac und]
+0.3 -5.7 64 -6 -6 холодно 1000.6 1000.0
СВ 6-14
{15}
50 км 10/8 600 м
[Cb cap Ac und]
+0.3 -7.2 57 -6 -6 холодно 1000.2 999.5 +0.2
СВ 8-15
{18}
50 км 10/6 600 м
[Cb cap Ac und]
-0.1 -6.7 61 -7 -7 холодно 1000.6 1000.0 -0.2
СВ 3
{18}
50 км 10/8 600 м
[Cb cap Ac und]
+0.4 -7.6 55 -4 -4 прохладно 1000.6 1000.0
С 6-11
{12}
50 км 10/8 600 м
[Cb cap Ac und]
+0.4 -9.9 46 -5 -5 холодно 1000.6 1000.0
С 7-12
{12}
50 км 10/8 600 м
[Cb cap Ac und]
-2.1 -12.4 45 -9 -9 очень
холодно
1003.3 1002.7 +1.0
С 8-12
{14}
50 км 10/6 600 м
[Cb cap Ac und]
-3.7 -14.4 43 -11 -11 очень
холодно
1003.3 1002.7
СВ 8-12
{15}
50 км 10/6 600 м
[Cb cap Ac lent Cs]
-4.8 -15.1 44 -13 -13 очень
холодно
1003.2 1002.5
С 6-10
{15}
50 км 9/3 600 м
[Cb cap Ac trans]
-5.2 -15.0 46 -12 -12 очень
холодно
1005.9 1005.3
С 7-13
{13}
50 км 10/6 600 м
[Cb cap Ac und]
-5.7 -16.0 44 -14 -14 очень
холодно
1006.8 1006.1 -5.8
СВ 7-12
{15}
50 км 9/6 600 м
[Cb cap Ac trans]
-6.5 -17.8 40 -14 -14 очень
холодно
1009.9 1009.3 -6.8
СВ 7-13
{14}
50 км 9/4 1000 м
[Sc Ci]
-6.6 -18.5 38 -15 -15 очень
холодно
1009.9 1009.3
С 6-12
{13}
50 км 8/0
[Ci fib]
-7.7 -18.6 41 -15 -15 очень
холодно
1011.4 1010.7
СВ 3
{12}
50 км 3/0
[Ci fib]
-8.6 -17.6 48 -14 -14 очень
холодно
1010.0 1009.3 -5.7
С 5-12
{12}
50 км 4/3 1000 м
[Sc Ac trans]
-8.6 -19.2 42 -16 -16 очень
холодно
1011.4 1010.7
С 4
{12}
50 км 8/3 1000 м
[Sc Ac trans]
-9.0 -19.5 42 -16 -16 очень
холодно
1011.4 1010.7
С 5 50 км 10/3 1000 м
[Sc Ac trans Ci fib]
-8.8 -19.6 41 -16 -16 очень
холодно
1012.7 1012.0
С 6-10
{12}
50 км 9/8 1440 м
[Sc Ac trans]
-8.4 -19.5 40 -16 -16 очень
холодно
1011.3 1010.6 -9.3
С 6-10
{12}
50 км 9/9 1440 м
[Sc]
-8.4 -19.9 39 -16 -16 очень
холодно
1012.7 1012.0
СВ 4
{10}
50 км 10/10 1440 м
[Sc]
-7.5 -19.7 37 -14 -14 очень
холодно
1012.7 1012.0
СВ 4
{10}
50 км 9/8 1500 м
[Sc Ac trans]
-8.8 -20.2 39 -15 -15 очень
холодно
1014.0 1013.3
С 4
{12}
50 км 9/8 1500 м
[Sc Ac trans]
-9.7 -20.5 41 -16 -16 очень
холодно
1015.4 1014.7 -7.4
СВ 3 50 км 9/8 1500 м
[Sc Ac trans]
-10.1 -20.0 44 -16 -16 очень
холодно
1015.4 1014.7
С 3 50 км 9/8 1440 м
[Sc Ac trans]
-9.9 -19.8 44 -16 -16 очень
холодно
1014.0 1013.3
С 4 50 км 9/8 1470 м
[Sc Ac trans]
-9.8 -19.5 45 -16 -16 очень
холодно
1015.4 1014.7
С 4 50 км 9/8 1000 м
[Sc Ac trans]
-9.4 -18.2 49 -16 -16 очень
холодно
1014.3 1013.6 -10.3
СВ 3 50 км 9/8 1000 м
[Sc Ac trans]
-8.5 -16.6 52 -14 -14 очень
холодно
1015.4 1014.7
СВ 3 50 км 6/3 1000 м
[Sc Ac trans Ci fib]
-7.7 -15.8 52 -13 -13 очень
холодно
1014.0 1013.3
С 3 50 км 1/1 1000 м
[Sc]
-8.9 -15.2 60 -15 -15 очень
холодно
1012.7 1012.0
С 4 10 км слаб. ливневой снег 10/8 600 м
[Cb cap Ac trans]
-7.6 -13.8 61 -14 -14 очень
холодно
1011.4 1010.7 -7.2 0.0
С 4 50 км {ливн. осадки} 8/6 600 м
[Cb cap Ac trans]
-7.1 -13.1 62 -13 -13 очень
холодно
1009.9 1009.3
С 5 50 км 4/0
[Ac trans Ci fib]
-8.4 -14.4 62 -16 -16 очень
холодно
1008.7 1008.0
С 4 50 км 4/1 1000 м
[Sc Ac trans Ci fib]
-8.6 -15.2 59 -15 -15 очень
холодно
1007.4 1006.7
СВ 3 20 км слаб. ливневой снег 9/9 600 м
[Cb cap]
-8.2 -14.7 59 -14 -14 очень
холодно
1004.9 1004.2 -9.7 0.0
С 3 50 км 10 баллов -6.2 -13.5 56 -11 -11 очень
холодно
1004.6 1004.0
СВ 4 50 км 10 баллов -3.3 -11.0 55 -9 -9 очень
холодно
1003.3 1002.7
С 4 50 км 10 баллов -4.8 -10.9 62 -11 -11 очень
холодно
1003.3 1002.7
СВ 5 50 км 10/8 600 м
[Cb cap Ac trans Ci fib]
-5.5 -10.1 70 -12 -12 очень
холодно
1003.3 1002.7 -3.3 0.0
С 3 10 км слаб. ливневой снег 7 баллов -6.3 -10.2 74 -12 -12 очень
холодно
1003.3 1002.7
СВ 3 50 км 2 балла -7.2 -11.0 74 -13 -13 очень
холодно
1003.3 1002.7
СВ 3 50 км 1 балл -7.3 -12.0 69 -13 -13 очень
холодно
1003.3 1002.7
Местоположение метеостанции Ола (Магаданская область, Россия): широта 59.56 долгота 151.20 высота над уровнем моря 5 м.
В архиве по умолчанию представлена погода в Оле за последнюю неделю. Архивные данные за месяц целиком и за предыдущие месяцы, начиная с января 2011 года, Вы можете получить, выбрав интересующий диапазон дат из раскрывающегося списка и нажав кнопку "Найти!".
*Определитесь, кто Вы:
Внимание! Время в таблицах - всемирное. Для получения местного времени необходимо прибавить поправку, которая равна 11 ч.
Смотрите также архив погоды в соседних городах и на ближайших метеорологических станциях:
Партнеры нашего сайта:      
Пояснения к столбцам:
  • Ветер - указаны скорость ветра в м/с - средняя за 10 мин, порывы в срок и между сроками (в фигурных скобках) и направление, откуда дует ветер: С - северный,
  • СВ - северо-восточный, В - восточный, ЮВ - юго-восточный, Ю - южный, ЮЗ - юго-западный, З - западный, СЗ - северо-западный.
  • Видимость - горизонтальная дальность видимости в метрах или километрах. При видимости от 1 до 10 км при отсутствии осадков обычно наблюдается дымка, при ухудшении видимости до 1 км и менее - туман. В сухую погоду видимость может ухудшаться дымом, пылью или мглою.
  • Явления - указаны атмосферные явления, наблюдавшиеся в срок или в последний час перед сроком; фигурными скобками обозначены явления, наблюдавшиеся между сроками (за 1-3 часа до срока); квадратными скобками обозначены град или гололедные отложения с указанием их диаметра в мм.
  • Облачность - указаны через наклонную черту общая и нижняя облачность в баллах и высота нижней границы облаков в метрах; квадратными скобками обозначены формы облаков: Ci - перистые, Cs - перисто-слоистые, Cc - перисто-кучевые, Ac - высококучевые, As - высокослоистые, Sc - слоисто-кучевые, Ns - слоисто-дождевые, Cu - кучевые, Cb - кучево-дождевые. Подробнее классификацию облаков см. в Атласе облаков (PDF).
  • T - Температура воздуха - температура, измеренная на высоте 2 м над землей.
  • Td - Температура точки росы - температура, при понижении до которой содержащийся в воздухе водяной пар достигнет насыщения.
  • f - Относительная влажность воздуха - влажноcть воздуха, измеренная на высоте 2 м над землей.
  • Te - Эффективная температура - температура, которую ощущает одетый по сезону человек в тени. Характеристика душности погоды. При расчете учитывается влияние влажности воздуха и скорости ветра на теплоощущения человека.
  • Tes - Эффективная температура на солнце - температура, которую ощущает человек, с поправкой на солнечный нагрев. Характеристика знойности погоды. Зависит от высоты солнца над горизонтом, облачности и скорости ветра. Ночью, в пасмурную погоду, а также при ветре 12 м/с и более поправка равна нулю.
  • P - Атмосферное давление - приведенное к уровню моря атмосферное давление.
  • Po - Атмосферное давление - измеренное на уровне метеостанции атмосферное давление.
  • Tmin - Минимальная температура - минимум температуры воздуха на высоте 2 м над землей.
  • Tmax - Максимальная температура - максимум температуры воздуха на высоте 2 м над землей.
  • R - Количество осадков - Количество выпавших осадков за период времени, мм. При наведении курсора мыши на число - период времени, за который выпало указанное количество осадков.
  • R24 - Количество осадков - Количество выпавших осадков за 24 часа, мм.
  • S - Снежный покров - Высота снежного покрова, см. При наведении курсора мыши на число - состояние снежного покрова и степень покрытия местности в баллах.